Location: Unspecified
(41.5516°N, 88.1098°W)
Time: 06:08:18
(UTC-05:00)

Hubble Space Telescope - Visible Passes

Search period start: 25 May 2018 00:00
Search period end: 04 June 2018 00:00
Orbit: 537 x 541 km, 28.5° (Epoch: 24 May)

Date Brightness Start Highest point End Pass type
(mag) Time Alt. Az. Time Alt. Az. Time Alt. Az.
30 May 3.1 04:20:20 10° S 04:20:59 10° SSE 04:21:39 10° SSE visible
31 May 2.9 04:09:23 10° S 04:10:30 11° S 04:11:52 10° SSE visible
01 Jun 2.8 03:59:29 12° S 04:00:01 12° S 04:01:44 10° SSE visible
02 Jun 2.8 03:49:38 13° S 03:49:38 13° S 03:51:27 10° SSE visible
03 Jun 2.9 03:39:51 13° SSE 03:39:51 13° SSE 03:41:04 10° SSE visible
